Location: Unspecified
(38.0989°N, 0.6729°W)
Time: 20:56:58
(UTC+02:00)

Hubble Space Telescope - Visible Passes

Search period start: 25 June 2017 00:00
Search period end: 05 July 2017 00:00
Orbit: 538 x 541 km, 28.5° (Epoch: 25 June)

Date Brightness Start Highest point End Pass type
(mag) Time Alt. Az. Time Alt. Az. Time Alt. Az.
30 Jun 2.9 06:12:20 10° SSW 06:14:34 14° SSE 06:16:47 10° SE visible
01 Jul 2.7 06:01:47 10° SSW 06:04:22 16° SSE 06:06:57 10° SE visible
02 Jul 2.6 05:51:35 11° SSW 05:54:11 18° S 05:57:00 10° SE visible
03 Jul 2.4 05:41:55 14° SSW 05:44:00 19° S 05:46:59 10° SE visible
04 Jul 2.3 05:32:18 17° SSW 05:33:49 20° S 05:36:54 10° SE visible
